Location: Zlin
(49.2330°N, 17.6670°E)
Time: 02:09:27
(UTC+01:00)

X-37B - Pass Details

Date: 22 September 2023
Orbit: 277 x 277 km, 45.0° (Epoch: 01 November)

Event Time Altitude Azimuth Distance (km) Brightness Sun altitude
Exits shadow 04:49:39 22° 145° (SE) 663 1.9 -17.6°
Drops below altitude 10° 04:51:10 10° 111° (ESE) 1,101 3.5 -17.4°
Sets 04:53:15 0° 97° (E) 1,915 5.2 -17.0°
